Terminal Aerodrome Forecast
Issued by NWS Portland, OR

Home | Current Version | Previous Version | Text Only | Print | Product List | Glossary On
Versions: 1 2 3 4 5 6 7 8 9 10 11 12 13 14 15 16 17 18 19 20 21 22 23 24 25 26 27
000
FTUS46 KPQR 251720
TAFPDX
TAF
KPDX 251720Z 2518/2618 30005KT P6SM SCT030 OVC040
     FM252300 30010KT P6SM BKN050
     FM260800 31005KT P6SM BKN040
     FM261400 30003KT P6SM SCT025 OVC035=

USA.gov is the U.S. government's official web portal to all federal, state and local government web resources and services.